Hourly Data Report for May 02, 2020

OTTAWA INTL A
ONTARIO
Current Station Operator: NAVCAN

45°19'00.000" N
75°40'00.000" W
114.90 m
6106001
71628
YOW

Download Data

Hourly Data (May 2020)
Hourly Data Report for May 2, 2020
TIME
LST
Temp Definition
°C
Dew Point Definition
°C
Rel Hum Definition
%
Precip. Amount Definition
mm

Wind Dir Definition
10's deg

Wind Spd Definition
km/h
Visibility Definition
km
Stn Press Definition
kPa
Hmdx Definition


Wind Chill Definition


Weather Definition


00:00 5.4 -0.5 66   21 6 24.1 100.03     LegendNANA
01:00 4.3 0.5 76   36 3 24.1 100.01     Mainly Clear
02:00 5.4 1.7 77   22 7 24.1 100.00     LegendNANA
03:00 4.9 1.5 79   22 7 24.1 99.99     LegendNANA
04:00 4.6 1.0 78   22 8 24.1 100.00     Mostly Cloudy
05:00 3.2 1.1 86   36 2 24.1 100.02     LegendNANA
06:00 5.2 3.0 85   36 3 24.1 100.09     LegendNANA
07:00 8.7 2.9 67   20 6 24.1 100.10     Clear
08:00 12.1 2.4 51   16 8 24.1 100.10     LegendNANA
09:00 13.5 1.4 44   20 11 24.1 100.08     LegendNANA
10:00 14.8 1.7 41   19 14 24.1 100.03     Mainly Clear
11:00 16.2 3.5 42   23 11 24.1 99.98     LegendNANA
12:00 17.0 3.8 41   19 14 24.1 99.87     LegendNANA
13:00 18.3 3.6 37   23 16 24.1 99.79     Mostly Cloudy
14:00 19.2 2.5 33   25 14 24.1 99.74     LegendNANA
15:00 20.3 2.8 31   20 16 24.1 99.63     LegendNANA
16:00 17.7 4.5 41   20 23 24.1 99.62     Mostly Cloudy
17:00 15.8 6.2 53   20 18 24.1 99.59     LegendNANA
18:00 15.1 6.7 57   18 10 24.1 99.54     LegendNANA
19:00 14.5 6.5 59   20 13 24.1 99.53     Cloudy
20:00 11.9 6.3 69   23 35 16.1 99.69     Rain
21:00 10.8 7.6 80   18 9 16.1 99.64     Rain
22:00 10.2 7.8 85   14 9 16.1 99.54     Rain
23:00 10.5 7.8 83   13 14 16.1 99.38     LegendNANA

Notes on Data Quality.

Legend

  • E = Estimated
  • M = Missing
  • NA = Not Available*
  • [empty] = Indicates an unobserved value
Date modified: